CW5404 Weather Reports


time (UTC)temp
C
wind
direction
speed
KPH
gust
KPH
rain 1hr
cm
rain 24hr
cm
rain mn
cm
humidity
%
barometer
mb
20260509040914 16 229 0.0 0.0 0.00 0.00 0.00 67 1020.5
20260509040414 16 229 0.0 0.0 0.00 0.00 0.00 67 1020.5
20260509035914 16 226 0.0 0.0 0.00 0.00 0.00 66 1020.5
20260509035414 16 226 0.0 1.6 0.00 0.00 0.00 66 1020.3
20260509034914 16 197 0.0 1.6 0.00 0.00 0.00 65 1020.3
20260509034414 16 197 0.0 1.6 0.00 0.00 0.00 66 1020.3
20260509033914 16 197 0.0 1.6 0.00 0.00 0.00 66 1020.3
20260509033414 16 197 0.0 3.2 0.00 0.00 0.00 65 1020.3
20260509032914 17 198 0.0 4.8 0.00 0.00 0.00 65 1020.3
20260509032414 17 234 0.0 4.8 0.00 0.00 0.00 64 1020.3
20260509031914 17 338 0.0 0.0 0.00 0.00 0.00 64 1020.3
20260509031414 17 338 0.0 0.0 0.00 0.00 0.00 64 1020.3
20260509030914 17 339 0.0 0.0 0.00 0.00 0.00 64 1020.2
20260509030413 17 340 0.0 3.2 0.00 0.00 0.00 64 1020.2
20260509025913 17 340 0.0 3.2 0.00 0.00 0.00 64 1020.2
20260509025413 17 150 0.0 1.6 0.00 0.00 0.00 63 1020.1
20260509024913 17 150 1.6 4.8 0.00 0.00 0.00 62 1020.1
20260509024413 17 150 0.0 4.8 0.00 0.00 0.00 62 1020.1
20260509023913 17 76 0.0 1.6 0.00 0.00 0.00 62 1020.0
20260509023413 17 314 0.0 0.0 0.00 0.00 0.00 62 1020.0
20260509022913 17 313 0.0 1.6 0.00 0.00 0.00 61 1020.0
20260509022413 18 309 0.0 1.6 0.00 0.00 0.00 61 1019.9
20260509021913 18 321 0.0 3.2 0.00 0.00 0.00 60 1019.9
20260509021413 18 229 0.0 3.2 0.00 0.00 0.00 61 1019.9
20260509020913 18 225 0.0 3.2 0.00 0.00 0.00 61 1020.0
20260509020414 18 5 1.6 6.4 0.00 0.00 0.00 59 1020.0
20260509015913 18 236 1.6 6.4 0.00 0.00 0.00 58 1020.0
20260509015413 18 306 1.6 6.4 0.00 0.00 0.00 58 1020.0
20260509014913 18 213 0.0 6.4 0.00 0.00 0.00 58 1020.0
20260509014413 18 193 3.2 6.4 0.00 0.00 0.00 57 1020.0
20260509013913 18 84 0.0 3.2 0.00 0.00 0.00 58 1020.0
20260509013413 19 99 0.0 4.8 0.00 0.00 0.00 57 1020.0
20260509012913 19 53 1.6 4.8 0.00 0.00 0.00 57 1020.0
20260509012413 19 340 1.6 3.2 0.00 0.00 0.00 56 1020.2
20260509011913 19 22 0.0 8.0 0.00 0.00 0.00 59 1020.2
20260509011413 19 284 1.6 8.0 0.00 0.00 0.00 56 1020.2
20260509010413 19 219 0.0 6.4 0.00 0.00 0.00 57 1020.3
20260509005913 20 162 1.6 6.4 0.00 0.00 0.00 57 1020.3
20260509005413 20 94 4.8 6.4 0.00 0.00 0.00 55 1020.3
20260509004913 20 126 0.0 4.8 0.00 0.00 0.00 55 1020.3
20260509004413 20 55 4.8 11.3 0.00 0.00 0.00 58 1020.3
20260509003913 20 254 0.0 11.3 0.00 0.00 0.00 55 1020.3
20260509003413 20 296 1.6 8.0 0.00 0.00 0.00 55 1020.3
20260509002913 20 55 0.0 8.0 0.00 0.00 0.00 52 1020.3
20260509002413 20 9 1.6 3.2 0.00 0.00 0.00 55 1020.3
20260509001913 20 237 0.0 3.2 0.00 0.00 0.00 53 1020.3
20260509000913 20 261 0.0 3.2 0.00 0.00 0.00 56 1020.3
20260508234412 20 38 3.2 4.8 0.00 0.00 0.00 55 1020.4
20260508233912 20 259 0.0 9.7 0.00 0.00 0.00 54 1020.6
20260508233412 19 211 0.0 9.7 0.00 0.00 0.00 55 1020.6
20260508232913 19 191 0.0 9.7 0.00 0.00 0.00 56 1020.6
20260508231912 19 137 4.8 6.4 0.00 0.00 0.00 55 1020.5
20260508231412 19 76 0.0 6.4 0.00 0.00 0.00 55 1020.5
20260508230912 19 78 4.8 8.0 0.00 0.00 0.00 55 1020.7
20260508230413 19 59 1.6 8.0 0.00 0.00 0.00 52 1020.7
20260508225912 19 81 8.0 8.0 0.00 0.00 0.00 52 1020.7
20260508225412 20 275 0.0 4.8 0.00 0.00 0.00 53 1020.6
20260508224912 19 86 0.0 4.8 0.00 0.00 0.00 54 1020.6
20260508224413 19 23 3.2 4.8 0.00 0.00 0.00 52 1020.6
20260508223913 18 32 0.0 9.7 0.00 0.00 0.00 55 1020.7
20260508223412 18 19 0.0 9.7 0.00 0.00 0.00 56 1020.7
20260508220912 18 250 0.0 11.3 0.00 0.00 0.00 60 1020.8
20260508214912 18 143 3.2 12.9 0.00 0.00 0.00 53 1021.0
20260508214412 18 126 0.0 8.0 0.00 0.00 0.00 55 1021.0
20260508213412 18 173 1.6 9.7 0.00 0.00 0.00 54 1020.9
20260508212912 17 166 0.0 9.7 0.00 0.00 0.00 55 1020.9
20260508212412 17 180 9.7 9.7 0.00 0.00 0.00 59 1021.1
20260508211911 17 161 3.2 8.0 0.00 0.00 0.00 55 1021.1
20260508210412 17 194 1.6 8.0 0.00 0.00 0.00 55 1020.9
20260508205912 18 129 6.4 8.0 0.00 0.00 0.00 60 1020.9
20260508205411 17 93 1.6 11.3 0.00 0.00 0.00 60 1021.0
20260508204912 17 112 0.0 11.3 0.00 0.00 0.00 55 1021.0
20260508204412 17 355 4.8 9.7 0.00 0.00 0.00 58 1021.0
20260508203911 17 115 3.2 11.3 0.00 0.00 0.00 58 1021.0
20260508203412 16 159 4.8 11.3 0.00 0.00 0.00 57 1020.9
20260508202911 16 116 4.8 11.3 0.00 0.00 0.00 59 1020.9
20260508201911 17 53 4.8 11.3 0.00 0.00 0.00 56 1021.0
20260508200912 16 192 6.4 8.0 0.00 0.00 0.00 57 1021.1
20260508200411 16 108 4.8 8.0 0.00 0.00 0.00 62 1021.1
20260508195912 16 81 1.6 8.0 0.00 0.00 0.00 57 1021.1
20260508194411 16 36 6.4 9.7 0.00 0.00 0.00 62 1021.3
20260508193912 16 46 1.6 9.7 0.00 0.00 0.00 58 1021.2
20260508193411 16 179 1.6 8.0 0.00 0.00 0.00 57 1021.2
20260508192911 16 86 4.8 8.0 0.00 0.00 0.00 59 1021.3
20260508192411 16 140 4.8 6.4 0.00 0.00 0.00 62 1021.4
20260508191411 15 123 0.0 6.4 0.00 0.00 0.00 60 1021.3
20260508190911 16 39 0.0 4.8 0.00 0.00 0.00 59 1021.3
20260508190411 16 159 0.0 6.4 0.00 0.00 0.00 59 1021.3
20260508185911 16 133 0.0 6.4 0.00 0.00 0.00 60 1021.3
20260508185411 16 133 0.0 8.0 0.00 0.00 0.00 60 1021.4
20260508184411 16 146 1.6 8.0 0.00 0.00 0.00 56 1021.4
20260508183910 16 86 1.6 8.0 0.00 0.00 0.00 60 1021.5
20260508183411 15 320 3.2 8.0 0.00 0.00 0.00 58 1021.5
20260508182911 15 217 8.0 8.0 0.00 0.00 0.00 60 1021.5
20260508182411 15 142 0.0 8.0 0.00 0.00 0.00 57 1021.3
20260508181411 16 294 0.0 8.0 0.00 0.00 0.00 60 1021.3
20260508180910 16 320 3.2 8.0 0.00 0.00 0.00 55 1021.3
20260508180410 17 247 1.6 8.0 0.00 0.00 0.00 60 1021.3
20260508175910 16 246 4.8 11.3 0.00 0.00 0.00 60 1021.3
20260508175410 16 220 1.6 11.3 0.00 0.00 0.00 60 1021.3
20260508174410 16 329 1.6 6.4 0.00 0.00 0.00 63 1021.3
20260508173910 15 215 4.8 6.4 0.00 0.00 0.00 64 1021.2
20260508172410 14 208 3.2 11.3 0.00 0.00 0.00 65 1021.0
20260508171910 14 239 1.6 11.3 0.00 0.00 0.00 65 1021.0
20260508170911 14 216 3.2 11.3 0.00 0.00 0.00 66 1021.0
20260508170410 13 360 1.6 8.0 0.00 0.00 0.00 68 1021.0
20260508165910 13 223 1.6 8.0 0.00 0.00 0.00 71 1021.0
20260508165410 13 192 3.2 9.7 0.00 0.00 0.00 71 1021.0
20260508164910 12 194 3.2 14.5 0.00 0.00 0.00 71 1021.0
20260508164410 12 360 1.6 14.5 0.00 0.00 0.00 72 1021.0
20260508163410 12 312 3.2 8.0 0.00 0.00 0.00 77 1021.0
20260508162410 11 360 3.2 8.0 0.00 0.00 0.00 78 1020.8
20260508161910 11 360 0.0 8.0 0.00 0.00 0.00 78 1020.8
20260508160909 11 360 4.8 6.4 0.00 0.00 0.00 78 1020.6
20260508160410 11 360 4.8 11.3 0.00 0.00 0.00 79 1020.6
20260508155910 11 360 6.4 11.3 0.00 0.00 0.00 80 1020.6
20260508155410 11 187 4.8 11.3 0.00 0.00 0.00 80 1020.3
20260508154910 11 132 3.2 9.7 0.00 0.00 0.00 82 1020.3
20260508154409 11 202 6.4 9.7 0.00 0.00 0.00 80 1020.3
20260508152910 10 137 1.6 4.8 0.00 0.00 0.00 82 1020.7
20260508152410 10 175 4.8 8.0 0.00 0.00 0.00 83 1020.3
20260508151909 10 172 1.6 8.0 0.00 0.00 0.00 84 1020.3
20260508151409 10 152 0.0 4.8 0.00 0.00 0.00 87 1020.3
20260508150409 9 178 3.2 3.2 0.00 0.00 0.00 91 1020.5
20260508145409 8 360 0.0 0.0 0.00 0.00 0.00 91 1020.3
20260508144910 7 360 0.0 0.0 0.00 0.00 0.00 90 1020.3
20260508144409 7 360 0.0 0.0 0.00 0.00 0.00 90 1020.3
20260508143909 7 360 0.0 0.0 0.00 0.00 0.00 90 1020.3
20260508143410 7 360 0.0 1.6 0.00 0.00 0.00 91 1020.3
20260508142909 7 360 0.0 3.2 0.00 0.00 0.00 91 1020.3
20260508141909 7 360 0.0 0.0 0.00 0.00 0.00 91 1020.2
20260508141409 7 360 0.0 0.0 0.00 0.00 0.00 91 1020.2
20260508140409 7 360 0.0 0.0 0.00 0.00 0.00 92 1020.1
20260508135409 7 360 0.0 0.0 0.00 0.00 0.00 92 1020.2
20260508134909 6 360 0.0 0.0 0.00 0.00 0.00 92 1020.2
20260508134409 6 360 0.0 0.0 0.00 0.00 0.00 92 1020.2
20260508133909 6 360 0.0 0.0 0.00 0.00 0.00 92 1019.8
20260508132909 6 195 0.0 0.0 0.00 0.00 0.00 91 1019.8
20260508132409 6 195 0.0 0.0 0.00 0.00 0.00 91 1019.7
20260508131909 6 195 0.0 0.0 0.00 0.00 0.00 91 1019.7
20260508131409 6 195 0.0 0.0 0.00 0.00 0.00 90 1019.7
20260508130909 6 195 0.0 0.0 0.00 0.00 0.00 90 1019.5
20260508130409 6 195 0.0 0.0 0.00 0.00 0.00 90 1019.5
20260508125909 6 195 0.0 0.0 0.00 0.00 0.00 90 1019.5
20260508125409 6 195 0.0 0.0 0.00 0.00 0.00 90 1019.3
20260508124909 6 195 0.0 0.0 0.00 0.00 0.00 89 1019.3
20260508124409 6 195 0.0 0.0 0.00 0.00 0.00 89 1019.3
20260508123908 6 195 0.0 0.0 0.00 0.00 0.00 89 1019.1
20260508122909 6 195 0.0 0.0 0.00 0.00 0.00 89 1019.1
20260508121909 6 195 0.0 0.0 0.00 0.00 0.00 89 1019.0
20260508121409 6 195 0.0 0.0 0.00 0.00 0.00 89 1019.0
20260508120908 6 195 0.0 0.0 0.00 0.00 0.00 89 1018.6
20260508120409 6 195 0.0 0.0 0.00 0.00 0.00 89 1018.6
20260508115908 6 195 0.0 0.0 0.00 0.00 0.00 89 1018.6
20260508114908 6 195 0.0 0.0 0.00 0.00 0.00 89 1018.6
20260508114409 6 195 0.0 0.0 0.00 0.00 0.00 89 1018.6
20260508113909 6 195 0.0 0.0 0.00 0.00 0.00 89 1018.7
20260508113408 6 195 0.0 0.0 0.00 0.00 0.00 89 1018.7
20260508112908 6 195 0.0 0.0 0.00 0.00 0.00 89 1018.7
20260508112408 6 195 0.0 0.0 0.00 0.00 0.00 89 1018.5
20260508111908 6 195 0.0 0.0 0.00 0.00 0.00 89 1018.5
20260508111408 7 195 0.0 0.0 0.00 0.00 0.00 89 1018.5
20260508110908 7 194 0.0 0.0 0.00 0.00 0.00 89 1018.1
20260508105908 7 360 0.0 0.0 0.00 0.00 0.00 89 1018.1
20260508105408 7 360 0.0 0.0 0.00 0.00 0.00 89 1017.9
20260508104908 7 360 0.0 0.0 0.00 0.00 0.00 89 1017.9
20260508104407 6 360 0.0 0.0 0.00 0.00 0.00 89 1017.9
20260508103907 6 360 0.0 0.0 0.00 0.00 0.00 89 1017.8
20260508103408 6 360 0.0 0.0 0.00 0.00 0.00 89 1017.8
20260508102908 6 195 0.0 0.0 0.00 0.00 0.00 89 1017.8
20260508101908 6 195 0.0 0.0 0.00 0.00 0.00 89 1017.7
20260508101407 6 195 0.0 0.0 0.00 0.00 0.00 89 1017.7
20260508100407 6 195 0.0 0.0 0.00 0.00 0.00 89 1017.6
20260508095908 6 195 0.0 0.0 0.00 0.00 0.00 89 1017.6
20260508095407 6 195 0.0 0.0 0.00 0.00 0.00 89 1017.5
20260508093908 7 195 0.0 0.0 0.00 0.00 0.00 89 1017.2
20260508092907 7 195 0.0 0.0 0.00 0.00 0.00 89 1017.2
20260508091907 7 195 0.0 0.0 0.00 0.00 0.00 89 1017.1
20260508091407 7 195 0.0 0.0 0.00 0.00 0.00 89 1017.1
20260508090907 7 195 0.0 0.0 0.00 0.00 0.00 89 1016.9
20260508090407 7 360 0.0 0.0 0.00 0.00 0.00 89 1016.9
20260508085907 7 360 0.0 0.0 0.00 0.00 0.00 89 1016.9
20260508085407 7 194 0.0 0.0 0.00 0.00 0.00 89 1017.0
20260508084907 7 360 0.0 0.0 0.00 0.00 0.00 89 1017.0
20260508084407 7 360 0.0 0.0 0.00 0.00 0.00 89 1017.0
20260508083407 7 195 0.0 0.0 0.00 0.00 0.00 89 1016.9
20260508082907 8 360 0.0 0.0 0.00 0.00 0.00 89 1016.9
20260508082407 8 360 0.0 0.0 0.00 0.00 0.00 89 1016.8
20260508081907 8 360 0.0 0.0 0.00 0.00 0.00 89 1016.8
20260508081406 8 360 0.0 0.0 0.00 0.00 0.00 89 1016.8
20260508080406 8 360 0.0 0.0 0.00 0.00 0.00 88 1016.6
20260508075906 8 360 0.0 0.0 0.00 0.00 0.00 88 1016.6
20260508073407 8 360 0.0 0.0 0.00 0.00 0.00 86 1016.6
20260508071907 9 360 0.0 0.0 0.00 0.00 0.00 86 1016.4
20260508071406 9 360 0.0 0.0 0.00 0.00 0.00 86 1016.4
20260508070907 9 360 0.0 0.0 0.00 0.00 0.00 86 1016.3
20260508065936 10 360 0.0 0.0 0.00 0.00 0.00 85 1016.3
20260508064907 10 360 0.0 0.0 0.00 0.00 0.00 85 1016.3
20260508064407 10 360 0.0 0.0 0.00 0.00 0.00 84 1016.3
20260508062906 10 195 0.0 0.0 0.00 0.00 0.00 84 1016.4
20260508062406 11 195 0.0 0.0 0.00 0.00 0.00 84 1016.3
20260508061907 11 360 0.0 0.0 0.00 0.00 0.00 83 1016.3
20260508060907 11 360 0.0 0.0 0.00 0.00 0.00 82 1016.2
20260508060407 11 360 0.0 0.0 0.00 0.00 0.00 81 1016.2
20260508055906 11 360 0.0 0.0 0.00 0.00 0.00 81 1016.2
20260508055406 11 360 0.0 0.0 0.00 0.00 0.00 80 1016.3
20260508054906 11 195 0.0 0.0 0.00 0.00 0.00 80 1016.3
20260508053907 12 195 0.0 0.0 0.00 0.00 0.00 79 1016.3
20260508053406 12 195 0.0 0.0 0.00 0.00 0.00 79 1016.3
20260508052406 12 195 0.0 0.0 0.00 0.00 0.00 78 1016.3
20260508050906 13 195 0.0 0.0 0.00 0.00 0.00 76 1016.2
20260508050406 13 195 0.0 0.0 0.00 0.00 0.00 76 1016.2
20260508045406 13 195 0.0 1.6 0.00 0.00 0.00 75 1016.1
20260508043406 14 196 0.0 3.2 0.00 0.00 0.00 72 1016.1
20260508042906 14 255 0.0 1.6 0.00 0.00 0.00 71 1016.1
20260508042406 14 255 1.6 1.6 0.00 0.00 0.00 71 1016.0
20260508041906 14 256 0.0 0.0 0.00 0.00 0.00 69 1016.0
20260508041406 15 256 0.0 0.0 0.00 0.00 0.00 69 1016.1